Regional Weather Roundup
Issued by NWS

Home | Current Version | Previous Version | Text Only | Print | Product List | Glossary On
Versions: 1 2 3 4 5 6 7 8 9 10 11 12 13 14 15 16 17 18 19 20 21 22 23 24 25 26 27 28 29 30 31 32 33 34 35 36 37 38 39 40 41 42 43 44 45 46 47 48 49 50
000
ASUS43 KOAX 020610
RWRNE

WEATHER ROUNDUP FOR NEBRASKA
NATIONAL WEATHER SERVICE OMAHA NE
100 AM CDT TUE SEP 02 2014

NOTES: SATELLITE DATA IS BEING USED TO AUGMENT CLOUD COVER ABOVE
       12000 FEET.
       "FAIR" INDICATES FEW OR NO CLOUDS BELOW 12,000 FEET WITH NO
       SIGNIFICANT WEATHER AND/OR OBSTRUCTIONS TO VISIBILITY.

  * THESE STATIONS DO NOT REPORT WEATHER SUCH AS RAIN...SNOW OR FOG.

NEZ001>004-019>022-054>056-020700-
NEBRASKA PANHANDLE

CITY           SKY/WX    TMP DP  RH WIND       PRES   REMARKS
SCOTTSBLUFF    CLEAR     49  46  90 CALM      30.09S
6HR MIN TEMP:  49; 6HR MAX TEMP:  71; 6HR PCP: TRACE;

ALLIANCE       CLEAR     45  44  97 W7        30.07S
6HR MIN TEMP:  45; 6HR MAX TEMP:  65; 6HR PCP: TRACE;

CHADRON        CLEAR     47  46  97 SW5       30.04F
6HR MIN TEMP:  47; 6HR MAX TEMP:  62; 6HR PCP: TRACE;

KIMBALL        CLEAR     47  43  85 CALM      30.11S
SIDNEY         PTCLDY    54  47  77 VRB3      30.11S
6HR MIN TEMP:  52; 6HR MAX TEMP:  80;

$$

NEZ057>060-069>072-079>082-020700-
SOUTHWEST NEBRASKA

CITY           SKY/WX    TMP DP  RH WIND       PRES   REMARKS
NORTH PLATTE   PTCLDY    54  52  93 CALM      30.04F
6HR MIN TEMP:  53; 6HR MAX TEMP:  75; 6HR PCP:  0.08;

IMPERIAL       PTCLDY    58  53  84 NE9       30.07R
6HR MIN TEMP:  58; 6HR MAX TEMP:  78;

LEXINGTON      CLEAR     57  55  95 N6        30.02F
MCCOOK         CLEAR     60  55  83 NE5       30.02R
6HR MIN TEMP:  60; 6HR MAX TEMP:  77;

OGALLALA       PTCLDY    53  51  94 N3        30.07S
$$

NEZ005>010-023>029-035>040-094-020700-
NORTH CENTRAL NEBRASKA

CITY           SKY/WX    TMP DP  RH WIND       PRES   REMARKS
VALENTINE      CLEAR     51  50  96 W5        30.01S
6HR MIN TEMP:  51; 6HR MAX TEMP:  63; 6HR PCP:  0.05;

AINSWORTH      CLEAR     53  52  97 SW6       30.01S
BROKEN BOW     PTCLDY    54  53  97 CALM      30.02R
6HR MIN TEMP:  53; 6HR MAX TEMP:  75; 6HR PCP:  0.08;

O`NEILL        CLEAR     56  56  98 W6        29.98S
ORD            CLEAR     54  53  97 N3        29.98F
6HR MIN TEMP:  54; 6HR MAX TEMP:  74; 6HR PCP:  0.42;

THEDFORD       CLEAR     54  53  97 W5        30.04S
$$

NEZ041-046>049-061>064-073>077-083>087-020700-
SOUTH CENTRAL NEBRASKA

CITY           SKY/WX    TMP DP  RH WIND       PRES   REMARKS
GRAND ISLAND   FAIR      58  53  84 CALM      29.99F
6HR MIN TEMP:  58; 6HR MAX TEMP:  74; 6HR PCP: TRACE;

AURORA         FAIR      56  55  95 CALM      29.99F
HASTINGS       FAIR      60  54  80 CALM      30.00R
6HR MIN TEMP:  59; 6HR MAX TEMP:  72;

HEBRON         FAIR      63  56  77 E3        29.97F
HOLDREGE       FAIR      59  57  92 CALM      30.00S
KEARNEY *      FAIR      57  54  88 NW5       30.01F
YORK           FAIR      57 N/A N/A CALM      30.00R
$$

NEZ011>018-030>034-042>045-020700-
NORTHEAST NEBRASKA

CITY           SKY/WX    TMP DP  RH WIND       PRES   REMARKS
NORFOLK        FAIR      59  57  93 N3        29.94F
6HR MIN TEMP:  59; 6HR MAX TEMP:  76; 6HR PCP:  0.37;

ALBION         FAIR      57  55  92 NW8       29.96R
BLAIR          MOCLDY    63  57  82 N6        29.95F
FREMONT        MOCLDY    62  58  86 CALM      29.96R
TEKAMAH        MOCLDY    62  59  90 N5        29.92F
6HR MIN TEMP:  62; 6HR MAX TEMP:  76; 6HR PCP:  0.02;

WAYNE          FAIR      57  56  96 S6        29.93S
$$

NEZ050>053-065>068-078-088>093-020700-
SOUTHEAST NEBRASKA

CITY           SKY/WX    TMP DP  RH WIND       PRES   REMARKS
LINCOLN        FAIR      62  56  80 CALM      29.97S
6HR MIN TEMP:  62; 6HR MAX TEMP:  74; 6HR PCP: TRACE;

OMAHA EPPLEY   MOCLDY    65  58  78 N10       29.96R
6HR MIN TEMP:  63; 6HR MAX TEMP:  75; 6HR PCP: TRACE;

BEATRICE       FAIR      63  61  93 N7        29.97S
FALLS CITY     FAIR      63  62  97 CALM      29.92R
6HR MIN TEMP:  62; 6HR MAX TEMP:  76;

NEBRASKA CITY  FAIR      64  64 100 NW6       29.96R
PLATTSMOUTH    FAIR      66  62  87 NW8       29.96S
$$

NEZ044-045-051>053-067-020700-
OMAHA AREA

CITY           SKY/WX    TMP DP  RH WIND       PRES   REMARKS
OMAHA EPPLEY   MOCLDY    65  58  78 N10       29.96R
6HR MIN TEMP:  63; 6HR MAX TEMP:  75; 6HR PCP: TRACE;

BLAIR          MOCLDY    63  57  82 N6        29.95F
FREMONT        MOCLDY    62  58  86 CALM      29.96R
MILLARD        FAIR      66  58  75 NW7       29.96S
OFFUTT AFB     MOCLDY    66  65  97 NW8       29.95R
PLATTSMOUTH    FAIR      66  62  87 NW8       29.96S
WAHOO          MOCLDY    61  57  88 CALM      29.96R
$$


USA.gov is the U.S. government's official web portal to all federal, state and local government web resources and services.